Hourly Data Report for September 07, 2017

All times are specified in Local Standard Time (LST). Add 1 hour to adjust for Daylight Saving Time where and when it is observed.

KOUCHIBOUGUAC CS
NEW BRUNSWICK

46°47'00.000" N
65°01'00.000" W
21.00 m
8102328
71670
AKC

Download Data

Hourly Data (September 2017)
Hourly Data Report for September 7, 2017
Temp Definition
°C
Dew Point Temp Definition
°C
Rel Hum Definition
%
Wind Dir Definition
10's deg

Wind Spd Definition
km/h
Visibility Definition
km
Stn Press Definition
kPa
Hmdx Definition


Wind Chill Definition


Weather Definition


TIME
00:00 19.1 18.6 97 16 8   101.24     LegendNANA
01:00 19.0 18.5 97 17 6   101.21     LegendNANA
02:00 19.0 18.6 98 15 5   101.17     LegendNANA
03:00 19.2 18.8 98 16 7   101.13     LegendNANA
04:00 19.3 18.9 97 16 7   101.07     LegendNANA
05:00 19.2 18.9 98 15 7   100.96     LegendNANA
06:00 20.0 19.6 98 15 13   100.91 27   LegendNANA
07:00 20.4 20.0 98 15 10   100.83 28   LegendNANA
08:00 20.8 20.4 97 15 13   100.70 29   LegendNANA
09:00 21.3 20.7 97 16 14   100.63 29   LegendNANA
10:00 21.2 20.6 96 16 15   100.53 29   LegendNANA
11:00 21.5 20.9 96 17 13   100.46 30   LegendNANA
12:00 22.0 21.1 94 17 14   100.38 31   LegendNANA
13:00 22.2 20.8 92 18 16   100.31 30   LegendNANA
14:00 22.2 21.5 96 18 13   100.24 31   LegendNANA
15:00 22.4 20.8 91 18 18   100.14 31   LegendNANA
16:00 21.4 18.9 85 19 20   100.20 28   LegendNANA
17:00 20.7 18.2 86 19 17   100.23 27   LegendNANA
18:00 19.7 17.3 86 19 14   100.25     LegendNANA
19:00 18.5 16.5 88 20 13   100.31     LegendNANA
20:00 17.5 16.0 91 20 12   100.40     LegendNANA
21:00 17.0 15.7 92 20 11   100.49     LegendNANA
22:00 16.5 15.3 93 20 11   100.53     LegendNANA
23:00 16.3 15.2 93 19 11   100.58     LegendNANA

Notes on Data Quality.

Legend

  • E = Estimated
  • M = Missing
  • NA = Not Available
  • ‡ = Partner data that is not subject to review by the National Climate Archives
Date modified: